Location: Unspecified
(0.0000°N, 0.0000°E)
Time: 16:52:21
(UTC+00:00)

Hubble Space Telescope - Pass Details

Date: 12 January 2026
Orbit: 479 x 481 km, 28.5° (Epoch: 19 January)

Event Time Altitude Azimuth Distance (km) Brightness Sun altitude
Rises 19:17:20 0° 219° (SW) 2,523 5.3 -16.0°
Reaches altitude 10° 19:19:53 10° 203° (SSW) 1,644 3.9 -16.6°
Maximum altitude 19:22:53 22° 151° (SSE) 1,084 2.2 -17.3°
Enters shadow 19:23:49 20° 129° (SE) 1,150 2.2 -17.5°
